Year,Month,Day,Hour,Minute,Value (Times are PST for temperature in C)
2013,06,29,00,00,18.50
2013,06,29,00,01,18.50
2013,06,29,00,02,18.50
2013,06,29,00,03,18.50
2013,06,29,00,04,18.50
2013,06,29,00,05,18.50
2013,06,29,00,06,18.40
2013,06,29,00,07,18.40
2013,06,29,00,08,18.40
2013,06,29,00,09,18.40
2013,06,29,00,10,18.40
2013,06,29,00,11,18.40
2013,06,29,00,12,18.40
2013,06,29,00,13,18.40
2013,06,29,00,14,18.40
2013,06,29,00,15,18.40
2013,06,29,00,16,18.40
2013,06,29,00,17,18.40
2013,06,29,00,18,18.40
2013,06,29,00,19,18.40
2013,06,29,00,20,18.40
2013,06,29,00,21,18.40
2013,06,29,00,22,18.30
2013,06,29,00,23,18.30
2013,06,29,00,24,18.30
2013,06,29,00,25,18.40
2013,06,29,00,26,18.40
2013,06,29,00,27,18.40
2013,06,29,00,28,18.40
2013,06,29,00,29,18.40
2013,06,29,00,30,18.40
2013,06,29,00,31,18.40
2013,06,29,00,32,18.40
2013,06,29,00,33,18.40
2013,06,29,00,34,18.40
2013,06,29,00,35,18.40
2013,06,29,00,36,18.40
2013,06,29,00,37,18.40
2013,06,29,00,38,18.40
2013,06,29,00,39,18.50
2013,06,29,00,40,18.50
2013,06,29,00,41,18.50
2013,06,29,00,42,18.50
2013,06,29,00,43,18.50
2013,06,29,00,44,18.50
2013,06,29,00,45,18.50
2013,06,29,00,46,18.50
2013,06,29,00,47,18.50
2013,06,29,00,48,18.50
2013,06,29,00,49,18.50
2013,06,29,00,50,18.50
2013,06,29,00,51,18.50
2013,06,29,00,52,18.50
2013,06,29,00,53,18.50
2013,06,29,00,54,18.50
2013,06,29,00,55,18.50
2013,06,29,00,56,18.50
2013,06,29,00,57,18.50
2013,06,29,00,58,18.50
2013,06,29,00,59,18.50
2013,06,29,01,00,18.50
2013,06,29,01,01,18.50
2013,06,29,01,02,18.60
2013,06,29,01,03,18.60
2013,06,29,01,04,18.60
2013,06,29,01,05,18.60
2013,06,29,01,06,18.60
2013,06,29,01,07,18.60
2013,06,29,01,08,18.60
2013,06,29,01,09,18.60
2013,06,29,01,10,18.70
2013,06,29,01,11,18.70
2013,06,29,01,12,18.70
2013,06,29,01,13,18.70
2013,06,29,01,14,18.70
2013,06,29,01,15,18.70
2013,06,29,01,16,18.70
2013,06,29,01,17,18.70
2013,06,29,01,18,18.70
2013,06,29,01,19,18.80
2013,06,29,01,20,18.80
2013,06,29,01,21,18.80
2013,06,29,01,22,18.80
2013,06,29,01,23,18.80
2013,06,29,01,24,18.80
2013,06,29,01,25,18.70
2013,06,29,01,26,18.70
2013,06,29,01,27,18.70
2013,06,29,01,28,18.70
2013,06,29,01,29,18.70
2013,06,29,01,30,18.60
2013,06,29,01,31,18.60
2013,06,29,01,32,18.60
2013,06,29,01,33,18.50
2013,06,29,01,34,18.50
2013,06,29,01,35,18.40
2013,06,29,01,36,18.40
2013,06,29,01,37,18.30
2013,06,29,01,38,18.30
2013,06,29,01,39,18.30
2013,06,29,01,40,18.30
2013,06,29,01,41,18.20
2013,06,29,01,42,18.20
2013,06,29,01,43,18.20
2013,06,29,01,44,18.20
2013,06,29,01,45,18.20
2013,06,29,01,46,18.20
2013,06,29,01,47,18.20
2013,06,29,01,48,18.10
2013,06,29,01,49,18.10
2013,06,29,01,50,18.00
2013,06,29,01,51,18.00
2013,06,29,01,52,17.90
2013,06,29,01,53,17.90
2013,06,29,01,54,17.80
2013,06,29,01,55,17.80
2013,06,29,01,56,17.80
2013,06,29,01,57,17.80
2013,06,29,01,58,17.70
2013,06,29,01,59,17.70
2013,06,29,02,00,17.70
2013,06,29,02,01,17.60
2013,06,29,02,02,17.60
2013,06,29,02,03,17.60
2013,06,29,02,04,17.60
2013,06,29,02,05,17.50
2013,06,29,02,06,17.50
2013,06,29,02,07,17.50
2013,06,29,02,08,17.40
2013,06,29,02,09,17.40
2013,06,29,02,10,17.40
2013,06,29,02,11,17.40
2013,06,29,02,12,17.40
2013,06,29,02,13,17.30
2013,06,29,02,14,17.30
2013,06,29,02,15,17.30
2013,06,29,02,16,17.30
2013,06,29,02,17,17.30
2013,06,29,02,18,17.30
2013,06,29,02,19,17.30
2013,06,29,02,20,17.30
2013,06,29,02,21,17.30
2013,06,29,02,22,17.30
2013,06,29,02,23,17.30
2013,06,29,02,24,17.30
2013,06,29,02,25,17.30
2013,06,29,02,26,17.30
2013,06,29,02,27,17.30
2013,06,29,02,28,17.30
2013,06,29,02,29,17.30
2013,06,29,02,30,17.30
2013,06,29,02,31,17.30
2013,06,29,02,32,17.30
2013,06,29,02,33,17.30
2013,06,29,02,34,17.30
2013,06,29,02,35,17.30
2013,06,29,02,36,17.30
2013,06,29,02,37,17.30
2013,06,29,02,38,17.30
2013,06,29,02,39,17.30
2013,06,29,02,40,17.30
2013,06,29,02,41,17.30
2013,06,29,02,42,17.30
2013,06,29,02,43,17.30
2013,06,29,02,44,17.30
2013,06,29,02,45,17.30
2013,06,29,02,46,17.30
2013,06,29,02,47,17.30
2013,06,29,02,48,17.30
2013,06,29,02,49,17.30
2013,06,29,02,50,17.30
2013,06,29,02,51,17.30
2013,06,29,02,52,17.30
2013,06,29,02,53,17.30
2013,06,29,02,54,17.30
2013,06,29,02,55,17.30
2013,06,29,02,56,17.30
2013,06,29,02,57,17.30
2013,06,29,02,58,17.30
2013,06,29,02,59,17.30
2013,06,29,03,00,17.30
2013,06,29,03,01,17.30
2013,06,29,03,02,17.30
2013,06,29,03,03,17.30
2013,06,29,03,04,17.30
2013,06,29,03,05,17.30
2013,06,29,03,06,17.30
2013,06,29,03,07,17.30
2013,06,29,03,08,17.30
2013,06,29,03,09,17.30
2013,06,29,03,10,17.30
2013,06,29,03,11,17.30
2013,06,29,03,12,17.30
2013,06,29,03,13,17.30
2013,06,29,03,14,17.30
2013,06,29,03,15,17.30
2013,06,29,03,16,17.30
2013,06,29,03,17,17.40
2013,06,29,03,18,17.40
2013,06,29,03,19,17.40
2013,06,29,03,20,17.40
2013,06,29,03,21,17.40
2013,06,29,03,22,17.50
2013,06,29,03,23,17.50
2013,06,29,03,24,17.50
2013,06,29,03,25,17.50
2013,06,29,03,26,17.50
2013,06,29,03,27,17.50
2013,06,29,03,28,17.50
2013,06,29,03,29,17.50
2013,06,29,03,30,17.50
2013,06,29,03,31,17.60
2013,06,29,03,32,17.60
2013,06,29,03,33,17.60
2013,06,29,03,34,17.60
2013,06,29,03,35,17.60
2013,06,29,03,36,17.60
2013,06,29,03,37,17.60
2013,06,29,03,38,17.60
2013,06,29,03,39,17.60
2013,06,29,03,40,17.60
2013,06,29,03,41,17.60
2013,06,29,03,42,17.60
2013,06,29,03,43,17.60
2013,06,29,03,44,17.60
2013,06,29,03,45,17.60
2013,06,29,03,46,17.60
2013,06,29,03,47,17.60
2013,06,29,03,48,17.60
2013,06,29,03,49,17.60
2013,06,29,03,50,17.60
2013,06,29,03,51,17.60
2013,06,29,03,52,17.60
2013,06,29,03,53,17.60
2013,06,29,03,54,17.60
2013,06,29,03,55,17.60
2013,06,29,03,56,17.60
2013,06,29,03,57,17.60
2013,06,29,03,58,17.60
2013,06,29,03,59,17.60
2013,06,29,04,00,17.60
2013,06,29,04,01,17.60
2013,06,29,04,02,17.60
2013,06,29,04,03,17.60
2013,06,29,04,04,17.60
2013,06,29,04,05,17.60
2013,06,29,04,06,17.60
2013,06,29,04,07,17.60
2013,06,29,04,08,17.60
2013,06,29,04,09,17.60
2013,06,29,04,10,17.60
2013,06,29,04,11,17.60
2013,06,29,04,12,17.60
2013,06,29,04,13,17.60
2013,06,29,04,14,17.60
2013,06,29,04,15,17.60
2013,06,29,04,16,17.60
2013,06,29,04,17,17.60
2013,06,29,04,18,17.60
2013,06,29,04,19,17.60
2013,06,29,04,20,17.60
2013,06,29,04,21,17.60
2013,06,29,04,22,17.60
2013,06,29,04,23,17.60
2013,06,29,04,24,17.60
2013,06,29,04,25,17.60
2013,06,29,04,26,17.60
2013,06,29,04,27,17.60
2013,06,29,04,28,17.60
2013,06,29,04,29,17.60
2013,06,29,04,30,17.60
2013,06,29,04,31,17.60
2013,06,29,04,32,17.60
2013,06,29,04,33,17.60
2013,06,29,04,34,17.60
2013,06,29,04,35,17.60
2013,06,29,04,36,17.60
2013,06,29,04,37,17.60
2013,06,29,04,38,17.60
2013,06,29,04,39,17.70
2013,06,29,04,40,17.60
2013,06,29,04,41,17.60
2013,06,29,04,42,17.60
2013,06,29,04,43,17.60
2013,06,29,04,44,17.60
2013,06,29,04,45,17.60
2013,06,29,04,46,17.60
2013,06,29,04,47,17.60
2013,06,29,04,48,17.60
2013,06,29,04,49,17.60
2013,06,29,04,50,17.60
2013,06,29,04,51,17.60
2013,06,29,04,52,17.60
2013,06,29,04,53,17.60
2013,06,29,04,54,17.60
2013,06,29,04,55,17.60
2013,06,29,04,56,17.60
2013,06,29,04,57,17.60
2013,06,29,04,58,17.60
2013,06,29,04,59,17.60
2013,06,29,05,00,17.50
2013,06,29,05,01,17.50
2013,06,29,05,02,17.50
2013,06,29,05,03,17.40
2013,06,29,05,04,17.40
2013,06,29,05,05,17.40
2013,06,29,05,06,17.40
2013,06,29,05,07,17.40
2013,06,29,05,08,17.40
2013,06,29,05,09,17.30
2013,06,29,05,10,17.30
2013,06,29,05,11,17.30
2013,06,29,05,12,17.30
2013,06,29,05,13,17.30
2013,06,29,05,14,17.20
2013,06,29,05,15,17.20
2013,06,29,05,16,17.20
2013,06,29,05,17,17.20
2013,06,29,05,18,17.10
2013,06,29,05,19,17.00
2013,06,29,05,20,17.00
2013,06,29,05,21,16.90
2013,06,29,05,22,16.90
2013,06,29,05,23,16.90
2013,06,29,05,24,16.80
2013,06,29,05,25,16.80
2013,06,29,05,26,16.80
2013,06,29,05,27,16.80
2013,06,29,05,28,16.70
2013,06,29,05,29,16.70
2013,06,29,05,30,16.70
2013,06,29,05,31,16.70
2013,06,29,05,32,16.70
2013,06,29,05,33,16.70
2013,06,29,05,34,16.60
2013,06,29,05,35,16.60
2013,06,29,05,36,16.60
2013,06,29,05,37,16.60
2013,06,29,05,38,16.50
2013,06,29,05,39,16.50
2013,06,29,05,40,16.50
2013,06,29,05,41,16.40
2013,06,29,05,42,16.40
2013,06,29,05,43,16.40
2013,06,29,05,44,16.30
2013,06,29,05,45,16.30
2013,06,29,05,46,16.30
2013,06,29,05,47,16.30
2013,06,29,05,48,16.20
2013,06,29,05,49,16.20
2013,06,29,05,50,16.20
2013,06,29,05,51,16.20
2013,06,29,05,52,16.20
2013,06,29,05,53,16.10
2013,06,29,05,54,16.10
2013,06,29,05,55,16.00
2013,06,29,05,56,15.90
2013,06,29,05,57,15.90
2013,06,29,05,58,15.90
2013,06,29,05,59,15.90
2013,06,29,06,00,15.80
2013,06,29,06,01,15.80
2013,06,29,06,02,15.80
2013,06,29,06,03,15.80
2013,06,29,06,04,15.80
2013,06,29,06,05,15.80
2013,06,29,06,06,15.80
2013,06,29,06,07,15.70
2013,06,29,06,08,15.50
2013,06,29,06,09,15.20
2013,06,29,06,10,15.10
2013,06,29,06,11,15.00
2013,06,29,06,12,14.90
2013,06,29,06,13,14.70
2013,06,29,06,14,14.60
2013,06,29,06,15,14.50
2013,06,29,06,16,14.40
2013,06,29,06,17,14.30
2013,06,29,06,18,14.30
2013,06,29,06,19,14.20
2013,06,29,06,20,14.20
2013,06,29,06,21,14.20
2013,06,29,06,22,14.20
2013,06,29,06,23,14.20
2013,06,29,06,24,14.20
2013,06,29,06,25,14.20
2013,06,29,06,26,14.20
2013,06,29,06,27,14.30
2013,06,29,06,28,14.30
2013,06,29,06,29,14.30
2013,06,29,06,30,14.30
2013,06,29,06,31,14.40
2013,06,29,06,32,14.40
2013,06,29,06,33,14.40
2013,06,29,06,34,14.40
2013,06,29,06,35,14.40
2013,06,29,06,36,14.50
2013,06,29,06,37,14.50
2013,06,29,06,38,14.50
2013,06,29,06,39,14.50
2013,06,29,06,40,14.60
2013,06,29,06,41,14.60
2013,06,29,06,42,14.60
2013,06,29,06,43,14.60
2013,06,29,06,44,14.60
2013,06,29,06,45,14.60
2013,06,29,06,46,14.60
2013,06,29,06,47,14.70
2013,06,29,06,48,14.70
2013,06,29,06,49,14.70
2013,06,29,06,50,14.80
2013,06,29,06,51,14.80
2013,06,29,06,52,14.90
2013,06,29,06,53,15.00
2013,06,29,06,54,15.00
2013,06,29,06,55,15.00
2013,06,29,06,56,15.10
2013,06,29,06,57,15.10
2013,06,29,06,58,15.20
2013,06,29,06,59,15.20
2013,06,29,07,00,15.30
2013,06,29,07,01,15.30
2013,06,29,07,02,15.30
2013,06,29,07,03,15.30
2013,06,29,07,04,15.40
2013,06,29,07,05,15.40
2013,06,29,07,06,15.50
2013,06,29,07,07,15.50
2013,06,29,07,08,15.60
2013,06,29,07,09,15.60
2013,06,29,07,10,15.70
2013,06,29,07,11,15.70
2013,06,29,07,12,15.70
2013,06,29,07,13,15.80
2013,06,29,07,14,15.90
2013,06,29,07,15,16.00
2013,06,29,07,16,16.00
2013,06,29,07,17,16.10
2013,06,29,07,18,16.10
2013,06,29,07,19,16.10
2013,06,29,07,20,16.10
2013,06,29,07,21,16.20
2013,06,29,07,22,16.20
2013,06,29,07,23,16.20
2013,06,29,07,24,16.20
2013,06,29,07,25,16.20
2013,06,29,07,26,16.30
2013,06,29,07,27,16.30
2013,06,29,07,28,16.30
2013,06,29,07,29,16.40
2013,06,29,07,30,16.40
2013,06,29,07,31,16.40
2013,06,29,07,32,16.50
2013,06,29,07,33,16.60
2013,06,29,07,34,16.70
2013,06,29,07,35,16.70
2013,06,29,07,36,16.80
2013,06,29,07,37,16.80
2013,06,29,07,38,16.90
2013,06,29,07,39,16.90
2013,06,29,07,40,16.90
2013,06,29,07,41,17.00
2013,06,29,07,42,17.00
2013,06,29,07,43,17.00
2013,06,29,07,44,17.00
2013,06,29,07,45,17.00
2013,06,29,07,46,17.00
2013,06,29,07,47,17.00
2013,06,29,07,48,17.00
2013,06,29,07,49,17.10
2013,06,29,07,50,17.10
2013,06,29,07,51,17.10
2013,06,29,07,52,17.10
2013,06,29,07,53,17.10
2013,06,29,07,54,17.10
2013,06,29,07,55,17.20
2013,06,29,07,56,17.20
2013,06,29,07,57,17.20
2013,06,29,07,58,17.20
2013,06,29,07,59,17.30
2013,06,29,08,00,17.30
2013,06,29,08,01,17.30
2013,06,29,08,02,17.40
2013,06,29,08,03,17.40
2013,06,29,08,04,17.40
2013,06,29,08,05,17.50
2013,06,29,08,06,17.50
2013,06,29,08,07,17.60
2013,06,29,08,08,17.60
2013,06,29,08,09,17.70
2013,06,29,08,10,17.70
2013,06,29,08,11,17.70
2013,06,29,08,12,17.70
2013,06,29,08,13,17.70
2013,06,29,08,14,17.70
2013,06,29,08,15,17.70
2013,06,29,08,16,17.70
2013,06,29,08,17,17.70
2013,06,29,08,18,17.70
2013,06,29,08,19,17.70
2013,06,29,08,20,17.70
2013,06,29,08,21,17.70
2013,06,29,08,22,17.70
2013,06,29,08,23,17.80
2013,06,29,08,24,17.80
2013,06,29,08,25,17.80
2013,06,29,08,26,17.80
2013,06,29,08,27,17.80
2013,06,29,08,28,17.80
2013,06,29,08,29,17.80
2013,06,29,08,30,17.80
2013,06,29,08,31,17.80
2013,06,29,08,32,17.80
2013,06,29,08,33,17.80
2013,06,29,08,34,17.90
2013,06,29,08,35,17.90
2013,06,29,08,36,17.90
2013,06,29,08,37,17.90
2013,06,29,08,38,17.90
2013,06,29,08,39,17.90
2013,06,29,08,40,18.00
2013,06,29,08,41,18.00
2013,06,29,08,42,18.00
2013,06,29,08,43,18.00
2013,06,29,08,44,18.00
2013,06,29,08,45,18.00
2013,06,29,08,46,18.10
2013,06,29,08,47,18.10
2013,06,29,08,48,18.10
2013,06,29,08,49,18.10
2013,06,29,08,50,18.20
2013,06,29,08,51,18.20
2013,06,29,08,52,18.30
2013,06,29,08,53,18.30
2013,06,29,08,54,18.30
2013,06,29,08,55,18.40
2013,06,29,08,56,18.40
2013,06,29,08,57,18.30
2013,06,29,08,58,18.30
2013,06,29,08,59,18.40
2013,06,29,09,00,18.40
2013,06,29,09,01,18.40
2013,06,29,09,02,18.40
2013,06,29,09,03,18.50
2013,06,29,09,04,18.50
2013,06,29,09,05,18.60
2013,06,29,09,06,18.60
2013,06,29,09,07,18.70
2013,06,29,09,08,18.70
2013,06,29,09,09,18.70
2013,06,29,09,10,18.80
2013,06,29,09,11,18.80
2013,06,29,09,12,18.80
2013,06,29,09,13,18.90
2013,06,29,09,14,18.90
2013,06,29,09,15,19.00
2013,06,29,09,16,19.00
2013,06,29,09,17,19.10
2013,06,29,09,18,19.20
2013,06,29,09,19,19.30
2013,06,29,09,20,19.40
2013,06,29,09,21,19.50
2013,06,29,09,22,19.60
2013,06,29,09,23,19.70
2013,06,29,09,24,19.80
2013,06,29,09,25,19.90
2013,06,29,09,26,20.10
2013,06,29,09,27,20.30
2013,06,29,09,28,20.40
2013,06,29,09,29,20.60
2013,06,29,09,30,20.70
2013,06,29,09,31,20.80
2013,06,29,09,32,21.00
2013,06,29,09,33,21.10
2013,06,29,09,34,21.20
2013,06,29,09,35,21.30
2013,06,29,09,36,21.40
2013,06,29,09,37,21.40
2013,06,29,09,38,21.50
2013,06,29,09,39,21.60
2013,06,29,09,40,21.70
2013,06,29,09,41,21.80
2013,06,29,09,42,21.90
2013,06,29,09,43,21.90
2013,06,29,09,44,22.00
2013,06,29,09,45,22.10
2013,06,29,09,46,22.20
2013,06,29,09,47,22.20
2013,06,29,09,48,22.30
2013,06,29,09,49,22.30
2013,06,29,09,50,22.30
2013,06,29,09,51,22.30
2013,06,29,09,52,22.30
2013,06,29,09,53,22.30
2013,06,29,09,54,22.30
2013,06,29,09,55,22.30
2013,06,29,09,56,22.20
2013,06,29,09,57,22.20
2013,06,29,09,58,22.20
2013,06,29,09,59,22.10
2013,06,29,10,00,22.10
2013,06,29,10,01,22.10
2013,06,29,10,02,22.00
2013,06,29,10,03,22.00
2013,06,29,10,04,22.00
2013,06,29,10,05,22.00
2013,06,29,10,06,22.00
2013,06,29,10,07,22.00
2013,06,29,10,08,22.00
2013,06,29,10,09,21.90
2013,06,29,10,10,21.80
2013,06,29,10,11,21.80
2013,06,29,10,12,21.70
2013,06,29,10,13,21.70
2013,06,29,10,14,21.60
2013,06,29,10,15,21.60
2013,06,29,10,16,21.60
2013,06,29,10,17,21.60
2013,06,29,10,18,21.60
2013,06,29,10,19,21.70
2013,06,29,10,20,21.70
2013,06,29,10,21,21.70
2013,06,29,10,22,21.70
2013,06,29,10,23,21.80
2013,06,29,10,24,21.80
2013,06,29,10,25,21.80
2013,06,29,10,26,21.80
2013,06,29,10,27,21.90
2013,06,29,10,28,21.90
2013,06,29,10,29,22.00
2013,06,29,10,30,22.10
2013,06,29,10,31,22.20
2013,06,29,10,32,22.20
2013,06,29,10,33,22.30
2013,06,29,10,34,22.20
2013,06,29,10,35,22.20
2013,06,29,10,36,22.20
2013,06,29,10,37,22.10
2013,06,29,10,38,22.10
2013,06,29,10,39,22.10
2013,06,29,10,40,22.10
2013,06,29,10,41,22.10
2013,06,29,10,42,22.00
2013,06,29,10,43,21.90
2013,06,29,10,44,21.80
2013,06,29,10,45,21.80
2013,06,29,10,46,21.70
2013,06,29,10,47,21.70
2013,06,29,10,48,21.70
2013,06,29,10,49,21.80
2013,06,29,10,50,21.80
2013,06,29,10,51,21.90
2013,06,29,10,52,22.00
2013,06,29,10,53,22.10
2013,06,29,10,54,22.20
2013,06,29,10,55,22.20
2013,06,29,10,56,22.20
2013,06,29,10,57,22.30
2013,06,29,10,58,22.30
2013,06,29,10,59,22.30
2013,06,29,11,00,22.40
2013,06,29,11,01,22.30
2013,06,29,11,02,22.30
2013,06,29,11,03,22.40
2013,06,29,11,04,22.40
2013,06,29,11,05,22.30
2013,06,29,11,06,22.30
2013,06,29,11,07,22.30
2013,06,29,11,08,22.40
2013,06,29,11,09,22.40
2013,06,29,11,10,22.50
2013,06,29,11,11,22.60
2013,06,29,11,12,22.60
2013,06,29,11,13,22.70
2013,06,29,11,14,22.70
2013,06,29,11,15,22.70
2013,06,29,11,16,22.70
2013,06,29,11,17,22.80
2013,06,29,11,18,22.80
2013,06,29,11,19,22.80
2013,06,29,11,20,22.90
2013,06,29,11,21,23.00
2013,06,29,11,22,23.10
2013,06,29,11,23,23.10
2013,06,29,11,24,23.00
2013,06,29,11,25,23.00
2013,06,29,11,26,23.10
2013,06,29,11,27,23.10
2013,06,29,11,28,23.10
2013,06,29,11,29,23.10
2013,06,29,11,30,23.20
2013,06,29,11,31,23.20
2013,06,29,11,32,23.20
2013,06,29,11,33,23.10
2013,06,29,11,34,23.20
2013,06,29,11,35,23.20
2013,06,29,11,36,23.10
2013,06,29,11,37,23.10
2013,06,29,11,38,23.00
2013,06,29,11,39,23.00
2013,06,29,11,40,22.90
2013,06,29,11,41,22.90
2013,06,29,11,42,22.90
2013,06,29,11,43,23.00
2013,06,29,11,44,22.90
2013,06,29,11,45,22.90
2013,06,29,11,46,22.90
2013,06,29,11,47,22.90
2013,06,29,11,48,23.00
2013,06,29,11,49,23.10
2013,06,29,11,50,23.20
2013,06,29,11,51,23.40
2013,06,29,11,52,23.40
2013,06,29,11,53,23.50
2013,06,29,11,54,23.60
2013,06,29,11,55,23.70
2013,06,29,11,56,23.70
2013,06,29,11,57,23.70
2013,06,29,11,58,23.70
2013,06,29,11,59,23.70
2013,06,29,12,00,23.80
2013,06,29,12,01,23.80
2013,06,29,12,02,23.80
2013,06,29,12,03,23.90
2013,06,29,12,04,23.90
2013,06,29,12,05,24.00
2013,06,29,12,06,24.00
2013,06,29,12,07,24.00
2013,06,29,12,08,23.90
2013,06,29,12,09,23.80
2013,06,29,12,10,23.70
2013,06,29,12,11,23.60
2013,06,29,12,12,23.50
2013,06,29,12,13,23.40
2013,06,29,12,14,23.40
2013,06,29,12,15,23.40
2013,06,29,12,16,23.50
2013,06,29,12,17,23.50
2013,06,29,12,18,23.50
2013,06,29,12,19,23.50
2013,06,29,12,20,23.40
2013,06,29,12,21,23.30
2013,06,29,12,22,23.10
2013,06,29,12,23,22.90
2013,06,29,12,24,22.70
2013,06,29,12,25,22.70
2013,06,29,12,26,22.70
2013,06,29,12,27,22.60
2013,06,29,12,28,22.60
2013,06,29,12,29,22.60
2013,06,29,12,30,22.60
2013,06,29,12,31,22.60
2013,06,29,12,32,22.70
2013,06,29,12,33,22.80
2013,06,29,12,34,22.80
2013,06,29,12,35,22.80
2013,06,29,12,36,22.80
2013,06,29,12,37,22.80
2013,06,29,12,38,22.70
2013,06,29,12,39,22.70
2013,06,29,12,40,22.70
2013,06,29,12,41,22.70
2013,06,29,12,42,22.60
2013,06,29,12,43,22.50
2013,06,29,12,44,22.40
2013,06,29,12,45,22.40
2013,06,29,12,46,22.40
2013,06,29,12,47,22.40
2013,06,29,12,48,22.40
2013,06,29,12,49,22.40
2013,06,29,12,50,22.40
2013,06,29,12,51,22.50
2013,06,29,12,52,22.60
2013,06,29,12,53,22.70
2013,06,29,12,54,22.80
2013,06,29,12,55,22.90
2013,06,29,12,56,22.90
2013,06,29,12,57,22.80
2013,06,29,12,58,22.70
2013,06,29,12,59,22.50
2013,06,29,13,00,22.30
2013,06,29,13,01,22.20
2013,06,29,13,02,22.10
2013,06,29,13,03,22.10
2013,06,29,13,04,22.10
2013,06,29,13,05,22.10
2013,06,29,13,06,22.20
2013,06,29,13,07,22.20
2013,06,29,13,08,22.30
2013,06,29,13,09,22.40
2013,06,29,13,10,22.40
2013,06,29,13,11,22.50
2013,06,29,13,12,22.50
2013,06,29,13,13,22.50
2013,06,29,13,14,22.50
2013,06,29,13,15,22.50
2013,06,29,13,16,22.50
2013,06,29,13,17,22.40
2013,06,29,13,18,22.30
2013,06,29,13,19,22.30
2013,06,29,13,20,22.30
2013,06,29,13,21,22.30
2013,06,29,13,22,22.30
2013,06,29,13,23,22.40
2013,06,29,13,24,22.40
2013,06,29,13,25,22.50
2013,06,29,13,26,22.60
2013,06,29,13,27,22.60
2013,06,29,13,28,22.60
2013,06,29,13,29,22.70
2013,06,29,13,30,22.70
2013,06,29,13,31,22.70
2013,06,29,13,32,22.70
2013,06,29,13,33,22.80
2013,06,29,13,34,22.80
2013,06,29,13,35,22.80
2013,06,29,13,36,22.90
2013,06,29,13,37,22.90
2013,06,29,13,38,22.90
2013,06,29,13,39,23.00
2013,06,29,13,40,23.00
2013,06,29,13,41,23.00
2013,06,29,13,42,23.10
2013,06,29,13,43,23.20
2013,06,29,13,44,23.20
2013,06,29,13,45,23.20
2013,06,29,13,46,23.20
2013,06,29,13,47,23.20
2013,06,29,13,48,23.20
2013,06,29,13,49,23.20
2013,06,29,13,50,23.20
2013,06,29,13,51,23.10
2013,06,29,13,52,23.10
2013,06,29,13,53,23.10
2013,06,29,13,54,23.00
2013,06,29,13,55,23.00
2013,06,29,13,56,22.90
2013,06,29,13,57,22.90
2013,06,29,13,58,22.90
2013,06,29,13,59,22.90
2013,06,29,14,00,22.90
2013,06,29,14,01,23.00
2013,06,29,14,02,23.10
2013,06,29,14,03,23.20
2013,06,29,14,04,23.30
2013,06,29,14,05,23.50
2013,06,29,14,06,23.60
2013,06,29,14,07,23.70
2013,06,29,14,08,23.80
2013,06,29,14,09,23.80
2013,06,29,14,10,23.90
2013,06,29,14,11,23.90
2013,06,29,14,12,23.90
2013,06,29,14,13,23.90
2013,06,29,14,14,23.90
2013,06,29,14,15,23.90
2013,06,29,14,16,23.80
2013,06,29,14,17,23.70
2013,06,29,14,18,23.60
2013,06,29,14,19,23.50
2013,06,29,14,20,23.40
2013,06,29,14,21,23.30
2013,06,29,14,22,23.20
2013,06,29,14,23,23.10
2013,06,29,14,24,23.00
2013,06,29,14,25,22.90
2013,06,29,14,26,22.80
2013,06,29,14,27,22.80
2013,06,29,14,28,22.70
2013,06,29,14,29,22.70
2013,06,29,14,30,22.70
2013,06,29,14,31,22.70
2013,06,29,14,32,22.80
2013,06,29,14,33,22.80
2013,06,29,14,34,22.90
2013,06,29,14,35,22.90
2013,06,29,14,36,23.00
2013,06,29,14,37,23.10
2013,06,29,14,38,23.10
2013,06,29,14,39,23.20
2013,06,29,14,40,23.30
2013,06,29,14,41,23.40
2013,06,29,14,42,23.50
2013,06,29,14,43,23.60
2013,06,29,14,44,23.80
2013,06,29,14,45,23.90
2013,06,29,14,46,24.00
2013,06,29,14,47,24.10
2013,06,29,14,48,24.20
2013,06,29,14,49,24.30
2013,06,29,14,50,24.40
2013,06,29,14,51,24.50
2013,06,29,14,52,24.60
2013,06,29,14,53,24.60
2013,06,29,14,54,24.70
2013,06,29,14,55,24.60
2013,06,29,14,56,24.60
2013,06,29,14,57,24.70
2013,06,29,14,58,24.70
2013,06,29,14,59,24.70
2013,06,29,15,00,24.70
2013,06,29,15,01,24.70
2013,06,29,15,02,24.60
2013,06,29,15,03,24.60
2013,06,29,15,04,24.60
2013,06,29,15,05,24.60
2013,06,29,15,06,24.60
2013,06,29,15,07,24.60
2013,06,29,15,08,24.50
2013,06,29,15,09,24.60
2013,06,29,15,10,24.60
2013,06,29,15,11,24.70
2013,06,29,15,12,24.70
2013,06,29,15,13,24.80
2013,06,29,15,14,24.80
2013,06,29,15,15,24.80
2013,06,29,15,16,24.90
2013,06,29,15,17,24.80
2013,06,29,15,18,24.80
2013,06,29,15,19,24.80
2013,06,29,15,20,24.70
2013,06,29,15,21,24.60
2013,06,29,15,22,24.50
2013,06,29,15,23,24.50
2013,06,29,15,24,24.50
2013,06,29,15,25,24.50
2013,06,29,15,26,24.50
2013,06,29,15,27,24.50
2013,06,29,15,28,24.50
2013,06,29,15,29,24.40
2013,06,29,15,30,24.30
2013,06,29,15,31,24.30
2013,06,29,15,32,24.20
2013,06,29,15,33,24.20
2013,06,29,15,34,24.30
2013,06,29,15,35,24.30
2013,06,29,15,36,24.40
2013,06,29,15,37,24.50
2013,06,29,15,38,24.60
2013,06,29,15,39,24.60
2013,06,29,15,40,24.60
2013,06,29,15,41,24.60
2013,06,29,15,42,24.50
2013,06,29,15,43,24.50
2013,06,29,15,44,24.50
2013,06,29,15,45,24.60
2013,06,29,15,46,24.70
2013,06,29,15,47,24.80
2013,06,29,15,48,24.90
2013,06,29,15,49,24.90
2013,06,29,15,50,25.00
2013,06,29,15,51,25.10
2013,06,29,15,52,25.10
2013,06,29,15,53,25.30
2013,06,29,15,54,25.40
2013,06,29,15,55,25.30
2013,06,29,15,56,25.20
2013,06,29,15,57,25.20
2013,06,29,15,58,25.20
2013,06,29,15,59,25.20
2013,06,29,16,00,25.30
2013,06,29,16,01,25.40
2013,06,29,16,02,25.50
2013,06,29,16,03,25.60
2013,06,29,16,04,25.80
2013,06,29,16,05,25.90
2013,06,29,16,06,25.90
2013,06,29,16,07,26.00
2013,06,29,16,08,26.10
2013,06,29,16,09,26.20
2013,06,29,16,10,26.40
2013,06,29,16,11,26.60
2013,06,29,16,12,26.80
2013,06,29,16,13,26.90
2013,06,29,16,14,27.10
2013,06,29,16,15,27.20
2013,06,29,16,16,27.20
2013,06,29,16,17,27.30
2013,06,29,16,18,27.40
2013,06,29,16,19,27.50
2013,06,29,16,20,27.50
2013,06,29,16,21,27.60
2013,06,29,16,22,27.70
2013,06,29,16,23,27.70
2013,06,29,16,24,27.80
2013,06,29,16,25,27.90
2013,06,29,16,26,27.90
2013,06,29,16,27,27.90
2013,06,29,16,28,28.00
2013,06,29,16,29,28.10
2013,06,29,16,30,28.20
2013,06,29,16,31,28.20
2013,06,29,16,32,28.30
2013,06,29,16,33,28.30
2013,06,29,16,34,28.40
2013,06,29,16,35,28.50
2013,06,29,16,36,28.50
2013,06,29,16,37,28.60
2013,06,29,16,38,28.60
2013,06,29,16,39,28.60
2013,06,29,16,40,28.50
2013,06,29,16,41,28.60
2013,06,29,16,42,28.60
2013,06,29,16,43,28.60
2013,06,29,16,44,28.60
2013,06,29,16,45,28.60
2013,06,29,16,46,28.60
2013,06,29,16,47,28.70
2013,06,29,16,48,28.70
2013,06,29,16,49,28.70
2013,06,29,16,50,28.70
2013,06,29,16,51,28.70
2013,06,29,16,52,28.70
2013,06,29,16,53,28.70
2013,06,29,16,54,28.70
2013,06,29,16,55,28.70
2013,06,29,16,56,28.70
2013,06,29,16,57,28.70
2013,06,29,16,58,28.70
2013,06,29,16,59,28.60
2013,06,29,17,00,28.60
2013,06,29,17,01,28.70
2013,06,29,17,02,28.70
2013,06,29,17,03,28.70
2013,06,29,17,04,28.80
2013,06,29,17,05,28.90
2013,06,29,17,06,28.90
2013,06,29,17,07,28.80
2013,06,29,17,08,28.70
2013,06,29,17,09,28.60
2013,06,29,17,10,28.50
2013,06,29,17,11,28.40
2013,06,29,17,12,28.20
2013,06,29,17,13,28.20
2013,06,29,17,14,28.10
2013,06,29,17,15,28.10
2013,06,29,17,16,28.10
2013,06,29,17,17,28.10
2013,06,29,17,18,28.10
2013,06,29,17,19,28.10